{"data":{"norad_id":46171,"intl_designator":"2020-057BG","name":"STARLINK-1633","alt_names":[],"object_type":"PAYLOAD","status":"ACTIVE","operator":null,"country":"US","launch_date":"2020-08-18","launch_site_code":"AFETR","launch_vehicle":null,"mission":null,"orbit_class":"UNKNOWN","rcs_meters":null,"size_class":null,"mass_kg":null,"dimensions":null,"purposes":["comms"],"wikipedia_slug":null,"has_3d_model":false,"image_url":null,"decayed_at":null,"tle_current":{"epoch":"2026-05-24T23:47:03.683040Z","epoch_age_seconds":86195,"freshness":"FRESH","line1":"1 46171U 20057BG  26144.99101485  .00119536  00000+0  72974-3 0  9993","line2":"2 46171  53.0341 242.8267 0004994 284.6948  75.3517 15.76537285320108","mean_motion":15.76537285,"eccentricity":0.0004994,"inclination_deg":53.0341,"raan_deg":242.8267,"arg_perigee_deg":284.6948,"mean_anomaly_deg":75.3517,"bstar":0.00072974,"rev_number":32010,"period_min":91.339419225978,"perigee_km":336.90504585813,"apogee_km":343.6153809949,"semimajor_km":6718.3972134265,"source":"CELESTRAK","updated_at":"2026-05-25T13:38:16.468856Z"}}}